Time,TemperatureF,DewpointF,PressureIn,WindDirection,WindDirectionDegrees,WindSpeedMPH,WindSpeedGustMPH,Humidity,HourlyPrecipIn,Conditions,Clouds,dailyrainin,SoftwareType,DateUTC
2013-09-09 00:01:00,74.4,61.9,16.92,NW,304,6.0,11.0,65,0.00,,,0.00,VWS V13.01,2013-09-09 04:01:00,
2013-09-09 00:02:00,74.3,61.8,16.92,NE,52,5.0,11.0,65,0.00,,,0.00,VWS V13.01,2013-09-09 04:02:00,
2013-09-09 00:07:00,74.2,60.8,16.92,North,10,9.0,9.0,63,0.00,,,0.00,VWS V13.01,2013-09-09 04:07:00,
2013-09-09 00:12:00,74.2,60.4,16.92,ESE,115,1.0,1.0,62,0.00,,,0.00,VWS V13.01,2013-09-09 04:12:00,
2013-09-09 00:17:00,74.1,60.3,16.92,NNE,21,2.0,2.0,62,0.00,,,0.00,VWS V13.01,2013-09-09 04:17:00,
2013-09-09 00:22:00,74.0,60.6,16.92,North,5,0.0,0.0,63,0.00,,,0.00,VWS V13.01,2013-09-09 04:22:00,
2013-09-09 00:27:00,73.9,60.5,16.92,NE,37,5.0,5.0,63,0.00,,,0.00,VWS V13.01,2013-09-09 04:27:00,
2013-09-09 00:32:00,73.7,60.3,16.92,NNE,24,1.0,1.0,63,0.00,,,0.00,VWS V13.01,2013-09-09 04:32:00,
2013-09-09 00:37:00,73.5,60.2,16.92,NE,52,0.0,0.0,63,0.00,,,0.00,VWS V13.01,2013-09-09 04:37:00,
2013-09-09 00:42:00,73.2,59.9,16.92,WSW,241,0.0,1.0,63,0.00,,,0.00,VWS V13.01,2013-09-09 04:42:00,
2013-09-09 00:47:00,73.0,59.2,16.92,NNE,13,3.0,4.0,62,0.00,,,0.00,VWS V13.01,2013-09-09 04:47:00,
2013-09-09 00:52:00,72.9,59.1,16.92,NNE,21,2.0,3.0,62,0.00,,,0.00,VWS V13.01,2013-09-09 04:52:00,
2013-09-09 00:57:00,72.8,59.0,16.92,ENE,71,1.0,1.0,62,0.00,,,0.00,VWS V13.01,2013-09-09 04:57:00,
2013-09-09 01:02:00,72.7,58.9,16.92,NNE,30,2.0,3.0,62,0.00,,,0.00,VWS V13.01,2013-09-09 05:02:00,
2013-09-09 01:07:00,72.5,58.8,16.92,NNE,19,3.0,3.0,62,0.00,,,0.00,VWS V13.01,2013-09-09 05:07:00,
2013-09-09 01:12:00,72.4,58.7,16.92,North,11,2.0,4.0,62,0.00,,,0.00,VWS V13.01,2013-09-09 05:12:00,
2013-09-09 01:17:00,72.2,58.5,16.92,NE,55,0.0,2.0,62,0.00,,,0.00,VWS V13.01,2013-09-09 05:17:00,
2013-09-09 01:22:00,72.0,58.3,16.92,ENE,61,0.0,0.0,62,0.00,,,0.00,VWS V13.01,2013-09-09 05:22:00,
2013-09-09 01:27:00,71.9,58.2,16.92,NNW,340,0.0,1.0,62,0.00,,,0.00,VWS V13.01,2013-09-09 05:27:00,
2013-09-09 01:32:00,71.8,58.1,16.92,ENE,66,2.0,2.0,62,0.00,,,0.00,VWS V13.01,2013-09-09 05:32:00,
2013-09-09 01:37:00,71.8,58.1,16.92,North,5,1.0,1.0,62,0.00,,,0.00,VWS V13.01,2013-09-09 05:37:00,
2013-09-09 01:42:00,71.7,58.0,30.88,NE,55,3.0,3.0,62,0.00,,,0.00,VWS V13.01,2013-09-09 05:42:00,
2013-09-09 01:47:00,71.6,57.5,16.92,NNE,17,6.0,6.0,61,0.00,,,0.00,VWS V13.01,2013-09-09 05:47:00,
2013-09-09 01:52:00,71.6,56.5,16.92,NNW,347,3.0,3.0,59,0.00,,,0.00,VWS V13.01,2013-09-09 05:52:00,
2013-09-09 01:57:00,71.5,56.4,16.92,East,87,1.0,10.0,59,0.00,,,0.00,VWS V13.01,2013-09-09 05:57:00,
2013-09-09 02:02:00,71.5,56.4,16.92,NE,37,3.0,3.0,59,0.00,,,0.00,VWS V13.01,2013-09-09 06:02:00,
2013-09-09 02:07:00,71.5,56.9,16.92,SW,224,0.0,1.0,60,0.00,,,0.00,VWS V13.01,2013-09-09 06:07:00,
2013-09-09 02:12:00,71.4,56.8,16.92,North,11,1.0,2.0,60,0.00,,,0.00,VWS V13.01,2013-09-09 06:12:00,
2013-09-09 02:17:00,71.3,56.7,16.92,NE,40,1.0,1.0,60,0.00,,,0.00,VWS V13.01,2013-09-09 06:17:00,
2013-09-09 02:22:00,71.0,56.4,16.92,NNE,13,9.0,9.0,60,0.00,,,0.00,VWS V13.01,2013-09-09 06:22:00,
2013-09-09 02:27:00,70.8,56.7,17.42,NNW,338,0.0,0.0,61,0.00,,,0.00,VWS V13.01,2013-09-09 06:27:00,
2013-09-09 02:32:00,70.6,56.5,17.42,NNE,28,2.0,2.0,61,0.00,,,0.00,VWS V13.01,2013-09-09 06:32:00,
2013-09-09 02:37:00,70.4,56.3,16.92,NNE,26,2.0,3.0,61,0.00,,,0.00,VWS V13.01,2013-09-09 06:37:00,
2013-09-09 02:42:00,70.3,56.2,30.88,NE,37,0.0,0.0,61,0.00,,,0.00,VWS V13.01,2013-09-09 06:42:00,
2013-09-09 02:47:00,70.2,56.1,30.88,NNE,23,0.0,0.0,61,0.00,,,0.00,VWS V13.01,2013-09-09 06:47:00,
2013-09-09 02:52:00,70.1,56.0,30.88,NE,34,4.0,4.0,61,0.00,,,0.00,VWS V13.01,2013-09-09 06:52:00,
2013-09-09 02:57:00,70.1,56.0,30.88,NNE,22,9.0,11.0,61,0.00,,,0.00,VWS V13.01,2013-09-09 06:57:00,
2013-09-09 03:02:00,69.9,55.8,16.92,NNE,14,4.0,4.0,61,0.00,,,0.00,VWS V13.01,2013-09-09 07:02:00,
2013-09-09 03:07:00,69.8,55.8,16.92,NNW,339,3.0,3.0,61,0.00,,,0.00,VWS V13.01,2013-09-09 07:07:00,
2013-09-09 03:12:00,69.7,55.7,16.92,NNE,26,1.0,1.0,61,0.00,,,0.00,VWS V13.01,2013-09-09 07:12:00,
2013-09-09 03:17:00,69.6,56.0,16.92,NE,46,1.0,1.0,62,0.00,,,0.00,VWS V13.01,2013-09-09 07:17:00,
2013-09-09 03:22:00,69.4,55.8,16.92,North,350,4.0,5.0,62,0.00,,,0.00,VWS V13.01,2013-09-09 07:22:00,
2013-09-09 03:27:00,69.3,55.7,16.92,NNE,24,4.0,5.0,62,0.00,,,0.00,VWS V13.01,2013-09-09 07:27:00,
2013-09-09 03:32:00,69.2,55.6,16.92,NE,56,1.0,1.0,62,0.00,,,0.00,VWS V13.01,2013-09-09 07:32:00,
2013-09-09 03:37:00,69.2,55.6,16.92,ENE,67,3.0,3.0,62,0.00,,,0.00,VWS V13.01,2013-09-09 07:37:00,
2013-09-09 03:42:00,69.1,55.5,16.91,ENE,71,2.0,3.0,62,0.00,,,0.00,VWS V13.01,2013-09-09 07:42:00,
2013-09-09 03:47:00,69.0,55.5,16.91,ENE,64,4.0,4.0,62,0.00,,,0.00,VWS V13.01,2013-09-09 07:47:00,
2013-09-09 03:52:00,68.9,55.4,16.91,NNE,31,13.0,13.0,62,0.00,,,0.00,VWS V13.01,2013-09-09 07:52:00,
2013-09-09 03:57:00,68.7,55.2,16.91,North,11,0.0,13.0,62,0.00,,,0.00,VWS V13.01,2013-09-09 07:57:00,
2013-09-09 04:02:00,68.7,55.2,16.91,NW,326,1.0,7.0,62,0.00,,,0.00,VWS V13.01,2013-09-09 08:02:00,
2013-09-09 04:07:00,68.4,54.9,16.92,NE,36,1.0,8.0,62,0.00,,,0.00,VWS V13.01,2013-09-09 08:07:00,
2013-09-09 04:12:00,68.3,54.8,30.88,WNW,291,1.0,4.0,62,0.00,,,0.00,VWS V13.01,2013-09-09 08:12:00,
2013-09-09 04:17:00,68.0,54.5,30.88,North,5,0.0,4.0,62,0.00,,,0.00,VWS V13.01,2013-09-09 08:17:00,
2013-09-09 04:22:00,67.9,54.4,30.88,West,279,1.0,2.0,62,0.00,,,0.00,VWS V13.01,2013-09-09 08:22:00,
2013-09-09 04:27:00,67.6,54.1,30.88,WNW,287,2.0,6.0,62,0.00,,,0.00,VWS V13.01,2013-09-09 08:27:00,
2013-09-09 04:32:00,67.6,54.1,30.88,NNE,31,1.0,4.0,62,0.00,,,0.00,VWS V13.01,2013-09-09 08:32:00,
2013-09-09 04:37:00,67.5,54.0,30.88,NNE,20,1.0,5.0,62,0.00,,,0.00,VWS V13.01,2013-09-09 08:37:00,
2013-09-09 04:42:00,67.3,53.8,30.88,NE,38,0.0,4.0,62,0.00,,,0.00,VWS V13.01,2013-09-09 08:42:00,
2013-09-09 04:47:00,67.0,53.6,30.11,NE,38,0.0,1.0,62,0.00,,,0.00,VWS V13.01,2013-09-09 08:47:00,
2013-09-09 04:52:00,66.7,53.7,30.11,NE,38,0.0,4.0,63,0.00,,,0.00,VWS V13.01,2013-09-09 08:52:00,
2013-09-09 04:57:00,66.6,53.6,30.11,NE,38,0.0,1.0,63,0.00,,,0.00,VWS V13.01,2013-09-09 08:57:00,
2013-09-09 05:02:00,66.6,53.6,30.11,NE,44,0.0,3.0,63,0.00,,,0.00,VWS V13.01,2013-09-09 09:02:00,
2013-09-09 05:07:00,66.6,53.6,30.88,NE,44,0.0,2.0,63,0.00,,,0.00,VWS V13.01,2013-09-09 09:07:00,
2013-09-09 05:12:00,66.6,54.1,30.88,NE,47,0.0,2.0,64,0.00,,,0.00,VWS V13.01,2013-09-09 09:12:00,
2013-09-09 05:17:00,66.7,54.2,30.88,NE,46,0.0,1.0,64,0.00,,,0.00,VWS V13.01,2013-09-09 09:17:00,
2013-09-09 05:22:00,66.6,54.1,30.88,North,360,4.0,4.0,64,0.00,,,0.00,VWS V13.01,2013-09-09 09:22:00,
2013-09-09 05:27:00,66.6,54.1,30.88,North,360,0.0,4.0,64,0.00,,,0.00,VWS V13.01,2013-09-09 09:27:00,
2013-09-09 05:32:00,66.6,54.1,30.88,ENE,61,0.0,4.0,64,0.00,,,0.00,VWS V13.01,2013-09-09 09:32:00,
2013-09-09 05:37:00,66.6,54.1,30.88,NNE,27,0.0,3.0,64,0.00,,,0.00,VWS V13.01,2013-09-09 09:37:00,
2013-09-09 05:42:00,66.3,54.2,30.88,NNE,26,0.0,0.0,65,0.00,,,0.00,VWS V13.01,2013-09-09 09:42:00,
2013-09-09 05:47:00,66.1,53.6,30.88,NNE,26,0.0,1.0,64,0.00,,,0.00,VWS V13.01,2013-09-09 09:47:00,
2013-09-09 05:52:00,66.0,53.9,30.88,WNW,296,0.0,5.0,65,0.00,,,0.00,VWS V13.01,2013-09-09 09:52:00,
2013-09-09 05:57:00,66.1,53.6,30.88,NW,306,0.0,3.0,64,0.00,,,0.00,VWS V13.01,2013-09-09 09:57:00,
2013-09-09 06:02:00,66.1,54.0,18.62,NW,306,0.0,0.0,65,0.00,,,0.00,VWS V13.01,2013-09-09 10:02:00,
2013-09-09 06:07:00,66.1,53.6,18.62,NW,305,0.0,0.0,64,0.00,,,0.00,VWS V13.01,2013-09-09 10:07:00,
2013-09-09 06:12:00,66.1,53.6,18.62,NW,306,0.0,1.0,64,0.00,,,0.00,VWS V13.01,2013-09-09 10:12:00,
2013-09-09 06:17:00,66.1,53.6,18.62,WNW,292,2.0,4.0,64,0.00,,,0.00,VWS V13.01,2013-09-09 10:17:00,
2013-09-09 06:22:00,66.1,53.6,18.62,WNW,293,0.0,3.0,64,0.00,,,0.00,VWS V13.01,2013-09-09 10:22:00,
2013-09-09 06:27:00,66.1,53.6,18.62,WNW,293,0.0,1.0,64,0.00,,,0.00,VWS V13.01,2013-09-09 10:27:00,
2013-09-09 06:32:00,66.1,53.6,18.62,NNW,341,1.0,3.0,64,0.00,,,0.00,VWS V13.01,2013-09-09 10:32:00,
2013-09-09 06:37:00,66.1,53.6,18.62,NE,37,0.0,4.0,64,0.00,,,0.00,VWS V13.01,2013-09-09 10:37:00,
2013-09-09 06:42:00,66.1,53.6,18.62,NW,313,0.0,3.0,64,0.00,,,0.00,VWS V13.01,2013-09-09 10:42:00,
2013-09-09 06:47:00,66.2,53.7,18.62,NNW,329,0.0,3.0,64,0.00,,,0.00,VWS V13.01,2013-09-09 10:47:00,
2013-09-09 06:52:00,66.2,53.7,18.62,NW,326,0.0,2.0,64,0.00,,,0.00,VWS V13.01,2013-09-09 10:52:00,
2013-09-09 06:57:00,66.2,53.7,18.62,West,265,0.0,3.0,64,0.00,,,0.00,VWS V13.01,2013-09-09 10:57:00,
2013-09-09 07:02:00,66.2,53.7,18.62,NW,306,1.0,4.0,64,0.00,,,0.00,VWS V13.01,2013-09-09 11:02:00,
2013-09-09 07:07:00,66.2,53.7,18.62,NW,306,1.0,2.0,64,0.00,,,0.00,VWS V13.01,2013-09-09 11:07:00,
2013-09-09 07:12:00,66.2,53.7,18.62,NNW,336,0.0,2.0,64,0.00,,,0.00,VWS V13.01,2013-09-09 11:12:00,
2013-09-09 07:17:00,66.2,53.7,30.88,NNE,18,0.0,5.0,64,0.00,,,0.00,VWS V13.01,2013-09-09 11:17:00,
2013-09-09 07:22:00,66.2,53.7,30.88,NE,42,0.0,5.0,64,0.00,,,0.00,VWS V13.01,2013-09-09 11:22:00,
2013-09-09 07:27:00,66.2,53.7,30.88,NE,41,0.0,1.0,64,0.00,,,0.00,VWS V13.01,2013-09-09 11:27:00,
2013-09-09 07:32:00,66.2,53.7,30.88,NNE,22,0.0,2.0,64,0.00,,,0.00,VWS V13.01,2013-09-09 11:32:00,
2013-09-09 07:37:00,66.3,54.2,30.88,NNE,20,0.0,1.0,65,0.00,,,0.00,VWS V13.01,2013-09-09 11:37:00,
2013-09-09 07:42:00,66.4,53.9,30.88,NNE,19,0.0,1.0,64,0.00,,,0.00,VWS V13.01,2013-09-09 11:42:00,
2013-09-09 07:47:00,66.5,54.0,30.88,NNE,27,1.0,4.0,64,0.00,,,0.00,VWS V13.01,2013-09-09 11:47:00,
2013-09-09 07:52:00,66.5,54.0,30.88,North,9,0.0,5.0,64,0.00,,,0.00,VWS V13.01,2013-09-09 11:52:00,
2013-09-09 07:57:00,66.5,54.0,16.92,North,360,0.0,2.0,64,0.00,,,0.00,VWS V13.01,2013-09-09 11:57:00,
2013-09-09 08:02:00,66.5,54.0,30.88,North,350,0.0,1.0,64,0.00,,,0.00,VWS V13.01,2013-09-09 12:02:00,
2013-09-09 08:07:00,66.5,54.0,30.88,North,349,0.0,2.0,64,0.00,,,0.00,VWS V13.01,2013-09-09 12:07:00,
2013-09-09 08:12:00,66.5,54.4,30.88,North,350,0.0,2.0,65,0.00,,,0.00,VWS V13.01,2013-09-09 12:12:00,
2013-09-09 08:17:00,66.5,54.4,30.88,North,350,0.0,2.0,65,0.00,,,0.00,VWS V13.01,2013-09-09 12:17:00,
2013-09-09 08:22:00,66.6,54.5,30.88,NNE,27,2.0,6.0,65,0.00,,,0.00,VWS V13.01,2013-09-09 12:22:00,
2013-09-09 08:27:00,66.5,54.4,30.88,NNE,30,1.0,3.0,65,0.00,,,0.00,VWS V13.01,2013-09-09 12:27:00,
2013-09-09 08:32:00,66.4,54.3,16.92,NNE,22,2.0,9.0,65,0.00,,,0.00,VWS V13.01,2013-09-09 12:32:00,
2013-09-09 08:37:00,66.4,54.3,30.88,NNE,24,2.0,10.0,65,0.00,,,0.00,VWS V13.01,2013-09-09 12:37:00,
2013-09-09 08:42:00,66.5,54.4,30.88,NE,37,1.0,6.0,65,0.00,,,0.00,VWS V13.01,2013-09-09 12:42:00,
2013-09-09 08:47:00,66.7,54.6,30.88,North,360,0.0,4.0,65,0.00,,,0.00,VWS V13.01,2013-09-09 12:47:00,
2013-09-09 08:52:00,67.2,54.6,30.88,NNE,17,3.0,6.0,64,0.00,,,0.00,VWS V13.01,2013-09-09 12:52:00,
2013-09-09 08:57:00,67.6,55.0,30.88,NNE,28,3.0,4.0,64,0.00,,,0.00,VWS V13.01,2013-09-09 12:57:00,
2013-09-09 09:02:00,67.7,55.1,30.88,NW,309,2.0,4.0,64,0.00,,,0.00,VWS V13.01,2013-09-09 13:02:00,
2013-09-09 09:07:00,67.7,55.1,30.88,North,11,1.0,3.0,64,0.00,,,0.00,VWS V13.01,2013-09-09 13:07:00,
2013-09-09 09:12:00,67.7,55.1,30.88,NE,40,3.0,3.0,64,0.00,,,0.00,VWS V13.01,2013-09-09 13:12:00,
2013-09-09 09:17:00,67.7,55.1,30.88,NNE,21,1.0,3.0,64,0.00,,,0.00,VWS V13.01,2013-09-09 13:17:00,
2013-09-09 09:22:00,67.6,55.8,30.88,NE,51,3.0,5.0,66,0.00,,,0.00,VWS V13.01,2013-09-09 13:22:00,
2013-09-09 09:27:00,67.6,55.4,30.88,NE,56,0.0,4.0,65,0.00,,,0.00,VWS V13.01,2013-09-09 13:27:00,
2013-09-09 09:32:00,67.9,55.7,30.88,NNE,23,0.0,9.0,65,0.00,,,0.00,VWS V13.01,2013-09-09 13:32:00,
2013-09-09 09:37:00,68.3,55.7,30.88,NE,56,1.0,9.0,64,0.00,,,0.00,VWS V13.01,2013-09-09 13:37:00,
2013-09-09 09:42:00,68.9,55.8,30.88,East,80,2.0,4.0,63,0.00,,,0.00,VWS V13.01,2013-09-09 13:42:00,
2013-09-09 09:47:00,69.2,56.1,30.88,NNE,24,1.0,8.0,63,0.00,,,0.00,VWS V13.01,2013-09-09 13:47:00,
2013-09-09 09:52:00,69.6,56.5,30.88,NE,49,2.0,7.0,63,0.00,,,0.00,VWS V13.01,2013-09-09 13:52:00,
2013-09-09 09:57:00,69.7,56.6,30.88,NNE,28,2.0,10.0,63,0.00,,,0.00,VWS V13.01,2013-09-09 13:57:00,
2013-09-09 10:02:00,70.0,56.8,30.88,NNE,25,1.0,4.0,63,0.00,,,0.00,VWS V13.01,2013-09-09 14:02:00,
2013-09-09 10:07:00,70.3,56.7,30.88,NNE,30,0.0,3.0,62,0.00,,,0.00,VWS V13.01,2013-09-09 14:07:00,
2013-09-09 10:12:00,70.7,57.1,30.88,NW,325,1.0,3.0,62,0.00,,,0.00,VWS V13.01,2013-09-09 14:12:00,
2013-09-09 10:17:00,71.0,57.3,19.20,East,92,2.0,3.0,62,0.00,,,0.00,VWS V13.01,2013-09-09 14:17:00,
2013-09-09 10:22:00,70.9,57.2,30.88,NNE,32,1.0,6.0,62,0.00,,,0.00,VWS V13.01,2013-09-09 14:22:00,
2013-09-09 10:27:00,71.3,57.6,30.88,NE,34,2.0,3.0,62,0.00,,,0.00,VWS V13.01,2013-09-09 14:27:00,
2013-09-09 10:33:00,71.3,58.1,30.88,NNE,25,1.0,3.0,63,0.00,,,0.00,VWS V13.01,2013-09-09 14:33:00,
2013-09-09 10:38:00,71.3,58.1,30.88,NE,51,1.0,3.0,63,0.00,,,0.00,VWS V13.01,2013-09-09 14:38:00,
2013-09-09 10:43:00,71.3,58.1,30.88,East,84,3.0,3.0,63,0.00,,,0.00,VWS V13.01,2013-09-09 14:43:00,
2013-09-09 10:48:00,71.2,58.0,30.88,North,355,0.0,2.0,63,0.00,,,0.00,VWS V13.01,2013-09-09 14:48:00,
2013-09-09 10:53:00,71.2,58.0,19.20,NNE,13,1.0,2.0,63,0.00,,,0.00,VWS V13.01,2013-09-09 14:53:00,
2013-09-09 10:58:00,70.7,57.9,19.20,NE,38,2.0,2.0,64,0.00,,,0.00,VWS V13.01,2013-09-09 14:58:00,
2013-09-09 11:03:00,70.6,58.3,19.20,ESE,109,0.0,1.0,65,0.00,,,0.00,VWS V13.01,2013-09-09 15:03:00,
2013-09-09 11:08:00,71.1,58.8,19.20,NE,55,1.0,2.0,65,0.00,,,0.00,VWS V13.01,2013-09-09 15:08:00,
2013-09-09 11:13:00,71.3,58.9,19.20,NE,55,0.0,2.0,65,0.00,,,0.00,VWS V13.01,2013-09-09 15:13:00,
2013-09-09 11:18:00,71.3,58.9,19.20,ESE,102,2.0,2.0,65,0.00,,,0.00,VWS V13.01,2013-09-09 15:18:00,
2013-09-09 11:23:00,71.5,59.1,19.20,East,82,1.0,3.0,65,0.00,,,0.00,VWS V13.01,2013-09-09 15:23:00,
2013-09-09 11:28:00,71.4,59.0,19.20,East,82,0.0,0.0,65,0.00,,,0.00,VWS V13.01,2013-09-09 15:28:00,
2013-09-09 11:33:00,71.6,59.2,19.20,East,82,0.0,2.0,65,0.00,,,0.00,VWS V13.01,2013-09-09 15:33:00,
2013-09-09 11:38:00,71.8,59.0,19.20,NNE,25,0.0,3.0,64,0.00,,,0.00,VWS V13.01,2013-09-09 15:38:00,
2013-09-09 11:43:00,71.9,59.1,19.20,NNE,25,0.0,2.0,64,0.00,,,0.00,VWS V13.01,2013-09-09 15:43:00,
2013-09-09 11:48:00,71.9,59.5,19.20,ESE,103,2.0,2.0,65,0.00,,,0.00,VWS V13.01,2013-09-09 15:48:00,
2013-09-09 11:53:00,71.9,59.5,19.20,NE,52,0.0,1.0,65,0.00,,,0.00,VWS V13.01,2013-09-09 15:53:00,
2013-09-09 11:58:00,72.1,59.7,19.20,NE,52,0.0,1.0,65,0.00,,,0.00,VWS V13.01,2013-09-09 15:58:00,
2013-09-09 12:03:00,72.5,59.6,19.20,NE,42,0.0,0.0,64,0.00,,,0.00,VWS V13.01,2013-09-09 16:03:00,
2013-09-09 12:08:00,72.8,59.9,19.20,ESE,102,3.0,3.0,64,0.00,,,0.00,VWS V13.01,2013-09-09 16:08:00,
2013-09-09 12:13:00,73.3,60.4,19.06,ENE,59,1.0,2.0,64,0.00,,,0.00,VWS V13.01,2013-09-09 16:13:00,
2013-09-09 12:18:00,73.5,61.0,19.06,ENE,74,3.0,5.0,65,0.00,,,0.00,VWS V13.01,2013-09-09 16:18:00,
2013-09-09 12:23:00,73.1,60.7,19.06,East,94,0.0,2.0,65,0.00,,,0.00,VWS V13.01,2013-09-09 16:23:00,
2013-09-09 12:28:00,73.4,60.9,19.06,NE,34,1.0,2.0,65,0.00,,,0.00,VWS V13.01,2013-09-09 16:28:00,
2013-09-09 12:33:00,73.2,60.7,19.06,North,349,5.0,5.0,65,0.00,,,0.00,VWS V13.01,2013-09-09 16:33:00,
2013-09-09 12:38:00,72.8,60.8,19.06,East,92,2.0,3.0,66,0.00,,,0.00,VWS V13.01,2013-09-09 16:38:00,
2013-09-09 12:43:00,72.6,61.0,19.06,ESE,115,2.0,2.0,67,0.00,,,0.00,VWS V13.01,2013-09-09 16:43:00,
2013-09-09 12:48:00,72.6,61.0,19.06,SSE,152,3.0,3.0,67,0.00,,,0.00,VWS V13.01,2013-09-09 16:48:00,
2013-09-09 12:53:00,72.6,61.0,19.06,NE,45,1.0,3.0,67,0.00,,,0.00,VWS V13.01,2013-09-09 16:53:00,
2013-09-09 12:58:00,72.9,61.3,19.06,East,79,1.0,1.0,67,0.00,,,0.00,VWS V13.01,2013-09-09 16:58:00,
2013-09-09 13:03:00,73.0,61.4,19.06,East,88,0.0,3.0,67,0.00,,,0.00,VWS V13.01,2013-09-09 17:03:00,
2013-09-09 13:08:00,73.0,61.4,19.06,East,88,1.0,2.0,67,0.00,,,0.00,VWS V13.01,2013-09-09 17:08:00,
2013-09-09 13:13:00,73.2,61.6,19.06,NE,39,1.0,1.0,67,0.00,,,0.00,VWS V13.01,2013-09-09 17:13:00,
2013-09-09 13:18:00,73.5,61.9,19.06,East,100,2.0,4.0,67,0.00,,,0.00,VWS V13.01,2013-09-09 17:18:00,
2013-09-09 13:23:00,73.8,61.7,19.06,East,101,0.0,0.0,66,0.00,,,0.00,VWS V13.01,2013-09-09 17:23:00,
2013-09-09 13:28:00,74.0,61.9,19.06,South,189,4.0,5.0,66,0.00,,,0.00,VWS V13.01,2013-09-09 17:28:00,
2013-09-09 13:33:00,73.9,62.3,19.06,South,172,1.0,4.0,67,0.00,,,0.00,VWS V13.01,2013-09-09 17:33:00,
2013-09-09 13:38:00,74.3,62.6,19.06,SSE,155,2.0,2.0,67,0.00,,,0.00,VWS V13.01,2013-09-09 17:38:00,
2013-09-09 13:43:00,74.8,62.7,19.06,ENE,59,3.0,5.0,66,0.00,,,0.00,VWS V13.01,2013-09-09 17:43:00,
2013-09-09 13:48:00,75.0,62.9,19.06,ENE,63,3.0,3.0,66,0.00,,,0.00,VWS V13.01,2013-09-09 17:48:00,
2013-09-09 13:53:00,75.1,63.0,19.06,NE,45,3.0,3.0,66,0.00,,,0.00,VWS V13.01,2013-09-09 17:53:00,
2013-09-09 13:58:00,75.1,63.4,19.06,East,88,1.0,3.0,67,0.00,,,0.00,VWS V13.01,2013-09-09 17:58:00,
2013-09-09 14:03:00,75.7,63.5,19.06,NE,42,1.0,4.0,66,0.00,,,0.00,VWS V13.01,2013-09-09 18:03:00,
2013-09-09 14:08:00,75.8,63.2,19.06,NE,40,0.0,1.0,65,0.00,,,0.00,VWS V13.01,2013-09-09 18:08:00,
2013-09-09 14:13:00,76.2,64.0,19.06,NE,42,4.0,4.0,66,0.00,,,0.00,VWS V13.01,2013-09-09 18:13:00,
2013-09-09 14:18:00,76.1,63.9,16.93,NE,44,1.0,1.0,66,0.00,,,0.00,VWS V13.01,2013-09-09 18:18:00,
2013-09-09 14:23:00,76.7,64.1,30.88,NE,44,1.0,2.0,65,0.00,,,0.00,VWS V13.01,2013-09-09 18:23:00,
2013-09-09 14:28:00,76.7,64.1,30.88,ENE,67,2.0,4.0,65,0.00,,,0.00,VWS V13.01,2013-09-09 18:28:00,
2013-09-09 14:33:00,76.4,64.6,16.93,East,84,0.0,3.0,67,0.00,,,0.00,VWS V13.01,2013-09-09 18:33:00,
2013-09-09 14:38:00,76.2,64.0,30.88,NE,49,1.0,5.0,66,0.00,,,0.00,VWS V13.01,2013-09-09 18:38:00,
2013-09-09 14:43:00,76.9,64.7,30.88,NNE,26,3.0,3.0,66,0.00,,,0.00,VWS V13.01,2013-09-09 18:43:00,
2013-09-09 14:48:00,77.7,64.6,30.88,NNE,26,0.0,0.0,64,0.00,,,0.00,VWS V13.01,2013-09-09 18:48:00,
2013-09-09 14:53:00,78.7,65.5,30.88,ESE,116,5.0,5.0,64,0.00,,,0.00,VWS V13.01,2013-09-09 18:53:00,
2013-09-09 14:58:00,78.0,64.8,30.88,SE,145,3.0,5.0,64,0.00,,,0.00,VWS V13.01,2013-09-09 18:58:00,
2013-09-09 15:03:00,77.6,65.3,30.88,SE,126,2.0,5.0,66,0.00,,,0.00,VWS V13.01,2013-09-09 19:03:00,
2013-09-09 15:08:00,77.4,65.2,30.88,SW,228,3.0,6.0,66,0.00,,,0.00,VWS V13.01,2013-09-09 19:08:00,
2013-09-09 15:13:00,77.6,65.3,30.88,East,89,4.0,6.0,66,0.00,,,0.00,VWS V13.01,2013-09-09 19:13:00,
2013-09-09 15:18:00,78.5,66.2,30.88,ESE,103,3.0,4.0,66,0.00,,,0.00,VWS V13.01,2013-09-09 19:18:00,
2013-09-09 15:23:00,78.1,65.8,30.88,ENE,78,2.0,6.0,66,0.00,,,0.00,VWS V13.01,2013-09-09 19:23:00,
2013-09-09 15:28:00,78.3,66.0,30.88,NNE,22,6.0,6.0,66,0.00,,,0.00,VWS V13.01,2013-09-09 19:28:00,
2013-09-09 15:33:00,78.5,65.8,30.88,South,182,3.0,4.0,65,0.00,,,0.00,VWS V13.01,2013-09-09 19:33:00,
2013-09-09 15:38:00,78.3,66.0,30.88,NE,40,1.0,4.0,66,0.00,,,0.00,VWS V13.01,2013-09-09 19:38:00,
2013-09-09 15:43:00,78.4,66.1,30.88,ENE,57,6.0,9.0,66,0.00,,,0.00,VWS V13.01,2013-09-09 19:43:00,
2013-09-09 15:48:00,78.2,66.4,30.88,South,184,4.0,6.0,67,0.00,,,0.00,VWS V13.01,2013-09-09 19:48:00,
2013-09-09 15:53:00,78.5,66.2,30.88,East,80,2.0,7.0,66,0.00,,,0.00,VWS V13.01,2013-09-09 19:53:00,
2013-09-09 15:58:00,78.4,66.6,30.88,ESE,113,2.0,6.0,67,0.00,,,0.00,VWS V13.01,2013-09-09 19:58:00,
2013-09-09 16:03:00,77.9,66.1,30.88,South,179,5.0,7.0,67,0.00,,,0.00,VWS V13.01,2013-09-09 20:03:00,
2013-09-09 16:08:00,78.0,66.2,19.20,ENE,66,4.0,10.0,67,0.00,,,0.00,VWS V13.01,2013-09-09 20:08:00,
2013-09-09 16:13:00,78.1,66.3,19.20,NE,49,4.0,6.0,67,0.00,,,0.00,VWS V13.01,2013-09-09 20:13:00,
2013-09-09 16:18:00,77.8,66.4,30.88,East,101,2.0,5.0,68,0.00,,,0.00,VWS V13.01,2013-09-09 20:18:00,
2013-09-09 16:23:00,77.9,66.5,30.88,ESE,119,2.0,6.0,68,0.00,,,0.00,VWS V13.01,2013-09-09 20:23:00,
2013-09-09 16:28:00,77.9,66.5,16.93,East,97,0.0,2.0,68,0.00,,,0.00,VWS V13.01,2013-09-09 20:28:00,
2013-09-09 16:33:00,78.1,66.7,16.93,South,189,1.0,4.0,68,0.00,,,0.00,VWS V13.01,2013-09-09 20:33:00,
2013-09-09 16:38:00,78.3,66.9,16.93,SE,145,7.0,7.0,68,0.00,,,0.00,VWS V13.01,2013-09-09 20:38:00,
2013-09-09 16:43:00,78.4,67.0,16.93,ENE,76,5.0,7.0,68,0.00,,,0.00,VWS V13.01,2013-09-09 20:43:00,
2013-09-09 16:48:00,78.3,66.9,16.93,SE,127,1.0,4.0,68,0.00,,,0.00,VWS V13.01,2013-09-09 20:48:00,
2013-09-09 16:53:00,78.2,66.8,16.93,ENE,65,2.0,5.0,68,0.00,,,0.00,VWS V13.01,2013-09-09 20:53:00,
2013-09-09 16:58:00,78.4,67.0,16.93,South,169,4.0,11.0,68,0.00,,,0.00,VWS V13.01,2013-09-09 20:58:00,
2013-09-09 17:03:00,78.5,67.1,16.93,ENE,68,3.0,5.0,68,0.00,,,0.00,VWS V13.01,2013-09-09 21:03:00,
2013-09-09 17:08:00,78.0,67.0,16.93,SSE,156,3.0,6.0,69,0.00,,,0.00,VWS V13.01,2013-09-09 21:08:00,
2013-09-09 17:13:00,77.7,66.7,16.93,East,81,2.0,4.0,69,0.00,,,0.00,VWS V13.01,2013-09-09 21:13:00,
2013-09-09 17:18:00,77.8,67.2,16.93,East,90,5.0,5.0,70,0.00,,,0.00,VWS V13.01,2013-09-09 21:18:00,
2013-09-09 17:23:00,78.0,67.4,16.93,NE,38,0.0,4.0,70,0.00,,,0.00,VWS V13.01,2013-09-09 21:23:00,
2013-09-09 17:28:00,78.5,67.9,16.93,ENE,60,4.0,6.0,70,0.00,,,0.00,VWS V13.01,2013-09-09 21:28:00,
2013-09-09 17:33:00,78.2,67.6,16.93,NNE,26,2.0,7.0,70,0.00,,,0.00,VWS V13.01,2013-09-09 21:33:00,
2013-09-09 17:38:00,77.7,67.6,16.93,ENE,69,6.0,6.0,71,0.00,,,0.00,VWS V13.01,2013-09-09 21:38:00,
2013-09-09 17:43:00,77.5,67.4,16.93,ESE,113,4.0,11.0,71,0.00,,,0.00,VWS V13.01,2013-09-09 21:43:00,
2013-09-09 17:48:00,77.4,67.7,16.93,SE,145,0.0,3.0,72,0.00,,,0.00,VWS V13.01,2013-09-09 21:48:00,
2013-09-09 17:53:00,77.3,67.6,16.93,East,91,3.0,4.0,72,0.00,,,0.00,VWS V13.01,2013-09-09 21:53:00,
2013-09-09 17:58:00,77.4,68.1,16.93,SE,128,3.0,6.0,73,0.00,,,0.00,VWS V13.01,2013-09-09 21:58:00,
2013-09-09 18:03:00,77.3,68.0,16.93,East,94,4.0,5.0,73,0.00,,,0.00,VWS V13.01,2013-09-09 22:03:00,
2013-09-09 18:08:00,77.3,68.0,16.93,ENE,67,5.0,5.0,73,0.00,,,0.00,VWS V13.01,2013-09-09 22:08:00,
2013-09-09 18:13:00,77.1,67.8,16.93,East,82,2.0,5.0,73,0.00,,,0.00,VWS V13.01,2013-09-09 22:13:00,
2013-09-09 18:18:00,77.0,67.7,16.93,SE,129,5.0,9.0,73,0.00,,,0.00,VWS V13.01,2013-09-09 22:18:00,
2013-09-09 18:23:00,77.0,67.7,16.93,East,88,3.0,5.0,73,0.00,,,0.00,VWS V13.01,2013-09-09 22:23:00,
2013-09-09 18:28:00,76.9,67.2,16.17,East,82,1.0,3.0,72,0.00,,,0.00,VWS V13.01,2013-09-09 22:28:00,
2013-09-09 18:33:00,76.9,67.6,16.17,ENE,59,2.0,2.0,73,0.00,,,0.00,VWS V13.01,2013-09-09 22:33:00,
2013-09-09 18:38:00,76.8,67.5,16.17,East,100,2.0,8.0,73,0.00,,,0.00,VWS V13.01,2013-09-09 22:38:00,
2013-09-09 18:43:00,76.6,67.7,16.17,ESE,107,3.0,4.0,74,0.00,,,0.00,VWS V13.01,2013-09-09 22:43:00,
2013-09-09 18:48:00,76.5,68.0,16.17,ESE,123,3.0,5.0,75,0.00,,,0.00,VWS V13.01,2013-09-09 22:48:00,
2013-09-09 18:53:00,76.4,67.9,16.17,ESE,102,4.0,5.0,75,0.00,,,0.00,VWS V13.01,2013-09-09 22:53:00,
2013-09-09 18:58:00,76.4,67.9,16.17,North,360,0.0,3.0,75,0.00,,,0.00,VWS V13.01,2013-09-09 22:58:00,
2013-09-09 19:03:00,76.2,68.1,16.17,ESE,103,6.0,6.0,76,0.00,,,0.00,VWS V13.01,2013-09-09 23:03:00,
2013-09-09 19:08:00,76.1,67.6,16.17,ENE,69,0.0,3.0,75,0.00,,,0.00,VWS V13.01,2013-09-09 23:08:00,
2013-09-09 19:13:00,76.0,67.9,16.17,SSE,159,0.0,3.0,76,0.00,,,0.00,VWS V13.01,2013-09-09 23:13:00,
2013-09-09 19:18:00,75.9,67.8,16.17,SSW,192,0.0,5.0,76,0.00,,,0.00,VWS V13.01,2013-09-09 23:18:00,
2013-09-09 19:23:00,75.8,68.1,31.40,East,98,1.0,4.0,77,0.00,,,0.00,VWS V13.01,2013-09-09 23:23:00,
2013-09-09 19:28:00,75.6,67.9,31.40,ESE,115,3.0,3.0,77,0.00,,,0.00,VWS V13.01,2013-09-09 23:28:00,
2013-09-09 19:33:00,75.5,67.8,30.88,East,79,1.0,3.0,77,0.00,,,0.00,VWS V13.01,2013-09-09 23:33:00,
2013-09-09 19:38:00,75.3,67.6,30.88,East,99,1.0,2.0,77,0.00,,,0.00,VWS V13.01,2013-09-09 23:38:00,
2013-09-09 19:43:00,75.2,67.9,30.88,ENE,77,2.0,3.0,78,0.00,,,0.00,VWS V13.01,2013-09-09 23:43:00,
2013-09-09 19:48:00,75.1,67.8,30.88,ESE,109,0.0,3.0,78,0.00,,,0.00,VWS V13.01,2013-09-09 23:48:00,
2013-09-09 19:53:00,74.9,67.6,30.88,East,85,0.0,3.0,78,0.00,,,0.00,VWS V13.01,2013-09-09 23:53:00,
2013-09-09 19:58:00,74.9,67.9,30.88,ENE,63,1.0,3.0,79,0.00,,,0.00,VWS V13.01,2013-09-09 23:58:00,
2013-09-09 20:03:00,74.9,67.9,30.88,East,81,0.0,2.0,79,0.00,,,0.00,VWS V13.01,2013-09-10 00:03:00,
2013-09-09 20:08:00,74.9,67.9,30.88,East,88,0.0,3.0,79,0.00,,,0.00,VWS V13.01,2013-09-10 00:08:00,
2013-09-09 20:13:00,74.9,67.9,30.88,ENE,78,1.0,2.0,79,0.00,,,0.00,VWS V13.01,2013-09-10 00:13:00,
2013-09-09 20:18:00,74.9,67.9,30.88,ENE,75,0.0,2.0,79,0.00,,,0.00,VWS V13.01,2013-09-10 00:18:00,
2013-09-09 20:23:00,75.0,68.4,30.88,ENE,73,2.0,4.0,80,0.00,,,0.00,VWS V13.01,2013-09-10 00:23:00,
2013-09-09 20:28:00,75.1,68.5,30.88,East,89,2.0,3.0,80,0.00,,,0.00,VWS V13.01,2013-09-10 00:28:00,
2013-09-09 20:33:00,75.0,68.8,30.88,ENE,75,2.0,4.0,81,0.00,,,0.00,VWS V13.01,2013-09-10 00:33:00,
2013-09-09 20:38:00,75.0,68.4,30.88,East,80,3.0,3.0,80,0.00,,,0.00,VWS V13.01,2013-09-10 00:38:00,
2013-09-09 20:43:00,74.9,68.7,30.88,NE,51,3.0,6.0,81,0.00,,,0.00,VWS V13.01,2013-09-10 00:43:00,
2013-09-09 20:48:00,74.9,68.7,16.17,ENE,70,3.0,5.0,81,0.00,,,0.00,VWS V13.01,2013-09-10 00:48:00,
2013-09-09 20:53:00,74.9,68.7,16.17,NNE,24,2.0,2.0,81,0.00,,,0.00,VWS V13.01,2013-09-10 00:53:00,
2013-09-09 20:58:00,74.9,68.3,16.17,ENE,64,3.0,4.0,80,0.00,,,0.00,VWS V13.01,2013-09-10 00:58:00,
2013-09-09 21:03:00,74.8,68.2,30.88,East,96,0.0,0.0,80,0.00,,,0.00,VWS V13.01,2013-09-10 01:03:00,
2013-09-09 21:08:00,74.7,68.5,30.88,ESE,118,1.0,1.0,81,0.00,,,0.00,VWS V13.01,2013-09-10 01:08:00,
2013-09-09 21:13:00,74.6,68.4,30.88,NE,48,2.0,4.0,81,0.00,,,0.00,VWS V13.01,2013-09-10 01:13:00,
2013-09-09 21:18:00,74.6,68.8,30.88,ESE,115,2.0,5.0,82,0.00,,,0.00,VWS V13.01,2013-09-10 01:18:00,
2013-09-09 21:23:00,74.6,68.8,30.88,East,90,1.0,3.0,82,0.00,,,0.00,VWS V13.01,2013-09-10 01:23:00,
2013-09-09 21:28:00,74.5,68.7,30.88,SE,128,0.0,4.0,82,0.00,,,0.00,VWS V13.01,2013-09-10 01:28:00,
2013-09-09 21:33:00,74.5,68.3,30.88,East,84,0.0,1.0,81,0.00,,,0.00,VWS V13.01,2013-09-10 01:33:00,
2013-09-09 21:38:00,74.4,68.6,30.88,East,90,1.0,4.0,82,0.00,,,0.00,VWS V13.01,2013-09-10 01:38:00,
2013-09-09 21:43:00,74.4,68.6,30.88,ENE,67,2.0,3.0,82,0.00,,,0.00,VWS V13.01,2013-09-10 01:43:00,
2013-09-09 21:48:00,74.3,68.1,30.88,East,92,1.0,1.0,81,0.00,,,0.00,VWS V13.01,2013-09-10 01:48:00,
2013-09-09 21:53:00,74.3,68.4,30.88,ENE,63,2.0,2.0,82,0.00,,,0.00,VWS V13.01,2013-09-10 01:53:00,
2013-09-09 21:58:00,74.3,68.4,30.88,ENE,60,0.0,0.0,82,0.00,,,0.00,VWS V13.01,2013-09-10 01:58:00,
2013-09-09 22:03:00,74.2,68.4,18.62,ENE,61,0.0,1.0,82,0.00,,,0.00,VWS V13.01,2013-09-10 02:03:00,
2013-09-09 22:08:00,74.2,68.4,18.62,ENE,61,2.0,3.0,82,0.00,,,0.00,VWS V13.01,2013-09-10 02:08:00,
2013-09-09 22:13:00,74.2,68.7,18.62,East,85,3.0,6.0,83,0.00,,,0.00,VWS V13.01,2013-09-10 02:13:00,
2013-09-09 22:18:00,74.1,68.6,30.88,ESE,107,1.0,1.0,83,0.00,,,0.00,VWS V13.01,2013-09-10 02:18:00,
2013-09-09 22:23:00,74.0,68.5,30.88,East,84,0.0,1.0,83,0.00,,,0.00,VWS V13.01,2013-09-10 02:23:00,
2013-09-09 22:28:00,74.0,68.5,30.88,East,84,0.0,2.0,83,0.00,,,0.00,VWS V13.01,2013-09-10 02:28:00,
2013-09-09 22:33:00,73.9,68.4,30.88,East,83,0.0,0.0,83,0.00,,,0.00,VWS V13.01,2013-09-10 02:33:00,
2013-09-09 22:38:00,73.8,68.3,30.88,East,84,0.0,0.0,83,0.00,,,0.00,VWS V13.01,2013-09-10 02:38:00,
2013-09-09 22:43:00,73.8,68.7,30.88,East,86,2.0,4.0,84,0.00,,,0.00,VWS V13.01,2013-09-10 02:43:00,
2013-09-09 22:48:00,73.7,68.2,30.88,East,86,0.0,1.0,83,0.00,,,0.00,VWS V13.01,2013-09-10 02:48:00,
2013-09-09 22:53:00,73.7,68.6,30.88,East,86,0.0,3.0,84,0.00,,,0.00,VWS V13.01,2013-09-10 02:53:00,
2013-09-09 22:58:00,73.7,68.6,30.88,East,86,0.0,1.0,84,0.00,,,0.00,VWS V13.01,2013-09-10 02:58:00,
2013-09-09 23:03:00,73.6,68.5,18.62,East,86,0.0,1.0,84,0.00,,,0.00,VWS V13.01,2013-09-10 03:03:00,
2013-09-09 23:08:00,73.6,68.8,18.62,East,86,0.0,1.0,85,0.00,,,0.00,VWS V13.01,2013-09-10 03:08:00,
2013-09-09 23:13:00,73.7,68.9,30.88,East,90,1.0,1.0,85,0.00,,,0.00,VWS V13.01,2013-09-10 03:13:00,
2013-09-09 23:18:00,73.6,68.8,16.93,East,95,0.0,1.0,85,0.00,,,0.00,VWS V13.01,2013-09-10 03:18:00,
2013-09-09 23:23:00,73.6,68.8,30.88,East,95,0.0,1.0,85,0.00,,,0.00,VWS V13.01,2013-09-10 03:23:00,
2013-09-09 23:28:00,73.6,68.8,30.88,East,85,1.0,2.0,85,0.00,,,0.00,VWS V13.01,2013-09-10 03:28:00,
2013-09-09 23:33:00,73.5,69.1,30.88,SSE,155,0.0,3.0,86,0.00,,,0.00,VWS V13.01,2013-09-10 03:33:00,
2013-09-09 23:38:00,73.5,68.7,30.88,East,84,0.0,1.0,85,0.00,,,0.00,VWS V13.01,2013-09-10 03:38:00,
2013-09-09 23:43:00,73.5,69.1,30.88,SE,140,0.0,4.0,86,0.00,,,0.00,VWS V13.01,2013-09-10 03:43:00,
2013-09-09 23:48:00,73.5,69.1,30.88,East,90,2.0,2.0,86,0.00,,,0.00,VWS V13.01,2013-09-10 03:48:00,
2013-09-09 23:53:00,73.5,69.1,30.88,ENE,63,1.0,2.0,86,0.00,,,0.00,VWS V13.01,2013-09-10 03:53:00,
2013-09-09 23:58:00,73.5,69.1,30.88,SSE,159,3.0,4.0,86,0.00,,,0.00,VWS V13.01,2013-09-10 03:58:00,